[[{"header":{"parameterUnit":"m.s-1","parameterCategory":1,"la1":30.2991,"la2":30.254,"lo1":-89.0895,"lo2":-89.0444,"dy":0.0017,"dx":0.0017,"nx":28,"ny":28,"refTime":"2025-04-13T09:00:00:Z","depth":0,"parameterNumber":2,"parameterNumberName":"U-component_of_WINDS"},"data":[0,0,0,0,0,0,0,0,0,0,0,0,0,0,0,0,0,0,0,0,0,0,0,0,0,0,0,0,0,0,0,0,0,0,0,0,0,0,0,0,0,0,0,0,0,0,0,0,0,0,0,0,0,0,0,0,0,0,4.9172,4.9174,0,4.9324,4.9325,4.9327,4.9312,4.9309,4.9307,4.9305,4.9457,4.9464,4.947,0,0,0,0,0,0,0,0,0,0,0,0,0,4.8866,4.8872,4.9172,4.9174,4.9176,4.9323,4.9325,4.9327,4.9312,4.9309,4.9306,4.9304,4.9455,4.9463,4.947,0,0,0,0,0,0,0,0,0,0,0,0,0,4.9006,4.8874,4.9172,4.9186,4.9189,4.9323,4.9325,4.9328,4.9313,4.9309,4.9306,4.9302,4.9453,4.9462,4.9471,4.96,0,0,4.95,4.9504,0,0,0,0,0,0,0,0,4.8999,4.9018,4.9182,4.9185,4.9189,4.9295,4.9274,4.9419,4.9314,4.9266,4.9305,4.9301,4.9406,4.9419,4.9455,4.9607,4.9614,4.9501,4.9507,4.9511,4.9513,0,0,0,0,0,0,0,4.8989,4.9011,4.9232,4.9184,4.9189,4.9184,4.92,4.9301,4.9354,4.927,4.9269,4.9287,4.9407,4.9446,4.9459,4.9616,4.9501,4.9509,4.9515,4.9518,4.9879,4.9883,0,0,0,0,0,0,4.8976,4.9003,4.9227,4.9237,4.9083,4.9192,4.921,4.9265,4.9353,4.9363,4.929,4.9286,4.9432,4.9448,4.9464,4.9619,4.9511,4.9519,4.9525,4.9875,4.988,4.9884,0,0,0,0,0,0,4.897,4.8996,4.9221,4.912,4.9148,4.9201,4.9262,4.9269,4.9308,4.9368,4.9377,4.932,4.943,4.9451,4.9566,4.9624,4.9524,4.9532,4.9871,4.9877,4.9882,4.9931,0,0,0,0,0,0,4.8961,4.8994,4.9044,4.9121,4.9153,4.9322,4.9266,4.9275,4.9325,4.9321,4.9399,4.9408,4.9429,4.9552,4.9575,4.9635,4.9539,4.9866,4.9873,4.988,4.9925,4.9938,4.995,0,0,0,0,0,4.895,4.9052,4.9047,4.9074,4.9218,4.9325,4.9344,4.9365,4.933,4.938,4.9418,4.9406,4.9614,4.9564,4.959,4.9654,4.9862,4.9871,4.988,4.9919,4.9935,4.9949,0,0,0,0,0,0,4.8981,4.9063,4.9058,4.9188,4.925,4.9322,4.9387,4.9382,4.9455,4.9448,4.9471,4.9489,4.9605,4.9641,4.9584,4.9782,4.9733,4.9748,4.9754,4.977,4.9782,4.9771,4.9547,0,0,0,0,0,4.9003,4.9084,4.9151,4.9259,4.929,4.9333,4.9381,4.9392,4.9457,4.9483,4.9529,4.9592,4.9671,4.9723,4.9799,4.993,4.9946,4.9987,4.9999,5.0009,5.0021,5.009,5.0109,4.9914,4.9914,4.9913,0,0,4.9049,4.9103,4.9153,4.9267,4.9316,4.9398,4.9355,4.9445,4.9506,4.9496,4.9607,4.9644,4.9715,4.9838,4.9895,4.9872,5.0078,5.002,5.0028,5.0034,5.0101,5.012,5.0136,4.992,4.9919,4.9918,0,0,4.9174,4.9225,4.932,4.937,4.9445,4.9473,4.9495,4.9569,4.9592,4.9705,4.9699,4.9771,4.9908,4.9958,5.0002,5.0145,5.0136,5.0169,5.0234,5.0302,5.0317,5.0331,5.038,5.0398,5.0181,5.0181,5.0182,0,4.9222,4.9347,4.9369,4.9459,4.9508,4.9504,4.9599,4.9646,4.9742,4.9775,4.9749,4.9919,4.9967,5.0101,5.0135,5.0172,5.0197,5.016,5.0313,5.0327,5.034,5.0387,5.0406,5.0185,5.0184,5.0184,5.0184,0,4.94,4.9487,4.9554,4.9647,4.9704,4.9796,4.9831,4.9885,4.9892,4.9922,5.0035,5.0092,5.0179,5.0212,5.0219,5.0347,5.033,5.0308,5.0259,5.0362,5.0406,5.0425,5.019,5.0189,5.0188,5.0187,0,0,4.9549,4.9652,4.9677,4.9718,4.98,4.9867,4.9958,5.0044,5.0089,5.0155,5.0231,5.0346,5.0326,5.0376,5.0388,5.0448,5.0555,5.0419,5.0421,5.0441,5.0697,5.0711,5.0732,5.055,5.0554,5.0557,5.069,0,4.9681,4.9843,4.9865,5.0008,5.0087,5.0084,5.0163,5.0221,5.0251,5.0322,5.0355,5.0436,5.0404,5.0434,5.0493,5.053,5.0607,5.0521,5.0619,5.0623,5.06,5.0756,5.0772,5.0895,5.0708,5.0711,5.0713,0,4.9857,4.9928,5.0079,5.0149,5.0183,5.0253,5.0333,5.0401,5.0466,5.0484,5.0538,5.0543,5.0636,5.0584,5.0711,5.0652,5.0694,5.0718,5.0723,5.0732,5.0673,5.0766,5.0935,5.0952,5.0741,5.0739,5.0737,0,4.9948,5.0081,5.0188,5.0224,5.0309,5.0358,5.0395,5.0457,5.0507,5.0576,5.0608,5.0687,5.073,5.079,5.0815,5.0776,5.094,5.0891,5.0956,5.0955,5.0989,5.0987,5.1165,5.102,5.1019,5.1019,5.1019,0,5.0092,5.0184,5.023,5.0296,5.0398,5.0422,5.0522,5.0557,5.0612,5.0684,5.0686,5.0752,5.0783,5.0854,5.0874,5.0975,5.0995,5.1011,5.1015,5.101,5.1007,5.1036,5.1027,5.1024,5.1023,5.1022,5.1021,0,5.0211,5.0246,5.0361,5.0432,5.0452,5.0524,5.0583,5.0646,5.0675,5.0765,5.0788,5.0834,5.0918,5.0949,5.1051,5.1065,5.1181,5.1179,5.1159,5.1159,5.1222,5.1214,5.1423,5.145,5.1289,5.129,5.1292,0,5.03,5.037,5.0448,5.0496,5.0535,5.0613,5.0663,5.0689,5.0741,5.082,5.0873,5.0956,5.1024,5.1158,5.1199,5.1277,5.1276,5.1343,5.1287,5.1279,5.1274,5.1269,5.1275,5.1353,5.1355,5.1356,5.1357,0,5.0453,5.0467,5.054,5.0618,5.0678,5.0741,5.0803,5.0842,5.0877,5.0935,5.102,5.1073,5.1177,5.1259,5.1338,5.1375,5.1372,5.1375,5.1393,5.1388,5.1372,5.1379,5.1185,5.1369,5.1368,5.1367,5.1367,5.1366,5.0559,5.062,5.0684,5.0765,5.0813,5.087,5.0932,5.0969,5.1041,5.1128,5.1139,5.123,5.1292,5.1398,5.1439,5.151,5.1491,5.1519,5.1526,5.1532,5.1535,5.1363,5.1525,5.1524,5.1524,5.1524,5.1524,0,5.071,5.0751,5.0825,5.091,5.0973,5.0965,5.1032,5.1085,5.1165,5.1224,5.129,5.1388,5.1467,5.1515,5.1594,5.1642,5.1642,5.1661,5.1657,5.1665,5.1548,5.1523,5.166,5.166,5.166,5.166,5.166,5.166,5.0797,5.09,5.092,5.1047,5.1087,5.1177,5.1215,5.1267,5.1314,5.1422,5.1488,5.1519,5.1573,5.1656,5.1728,5.174,5.1768,5.1789,5.1799,5.1688,5.1674,5.166,5.1637,5.1795,5.1795,5.191,5.1911,5.1912]},{"header":{"parameterUnit":"m.s-1","parameterCategory":1,"la1":30.2991,"la2":30.254,"lo1":-89.0895,"lo2":-89.0444,"dy":0.0017,"dx":0.0017,"nx":28,"ny":28,"refTime":"2025-04-13T09:00:00:Z","depth":0,"parameterNumber":3,"parameterNumberName":"V-component_of_WINDS"},"data":[0,0,0,0,0,0,0,0,0,0,0,0,0,0,0,0,0,0,0,0,0,0,0,0,0,0,0,0,0,0,0,0,0,0,0,0,0,0,0,0,0,0,0,0,0,0,0,0,0,0,0,0,0,0,0,0,0,0,2.7552,2.7552,0,2.7599,2.76,2.76,2.757,2.7569,2.7567,2.7566,2.7614,2.7617,2.762,0,0,0,0,0,0,0,0,0,0,0,0,0,2.7434,2.7436,2.7552,2.7552,2.7553,2.7599,2.76,2.7601,2.757,2.7568,2.7567,2.7565,2.7614,2.7617,2.762,0,0,0,0,0,0,0,0,0,0,0,0,0,2.7484,2.7437,2.7552,2.7543,2.7543,2.7599,2.76,2.7601,2.7571,2.7568,2.7566,2.7564,2.7613,2.7616,2.762,2.7687,0,0,2.7632,2.7634,0,0,0,0,0,0,0,0,2.7481,2.7488,2.7544,2.7544,2.7544,2.7576,2.7576,2.763,2.7571,2.756,2.7566,2.7563,2.7604,2.7608,2.7622,2.7689,2.7691,2.7633,2.7635,2.7637,2.7638,0,0,0,0,0,0,0,2.7478,2.7486,2.7571,2.7545,2.7545,2.7537,2.7542,2.7586,2.7593,2.7561,2.7559,2.7565,2.7603,2.7618,2.7623,2.7692,2.7632,2.7636,2.7638,2.764,2.7816,2.7818,0,0,0,0,0,0,2.7475,2.7483,2.7569,2.7572,2.7506,2.7541,2.7546,2.7568,2.7593,2.7594,2.7567,2.7563,2.7612,2.7618,2.7624,2.7703,2.7637,2.764,2.7643,2.7814,2.7817,2.7819,0,0,0,0,0,0,2.7472,2.7483,2.7567,2.7527,2.7537,2.7545,2.757,2.757,2.7585,2.7597,2.7598,2.7581,2.7611,2.7619,2.7671,2.7705,2.7642,2.7646,2.7811,2.7815,2.7818,2.7863,0,0,0,0,0,0,2.7469,2.7482,2.7508,2.7528,2.7539,2.7614,2.7572,2.7573,2.7592,2.7588,2.761,2.7612,2.761,2.7666,2.7675,2.7709,2.7649,2.7808,2.7813,2.7817,2.7859,2.7868,2.7875,0,0,0,0,0,2.7465,2.7519,2.7509,2.752,2.7572,2.7616,2.7622,2.7619,2.7595,2.762,2.7628,2.7611,2.77,2.7671,2.7682,2.7717,2.7806,2.7811,2.7816,2.7855,2.7866,2.7875,0,0,0,0,0,0,2.7502,2.7521,2.7511,2.7573,2.7593,2.7611,2.7643,2.7631,2.7658,2.7654,2.7648,2.7653,2.7708,2.7718,2.7686,2.7783,2.7749,2.7757,2.7775,2.7785,2.7793,2.779,2.7652,0,0,0,0,0,2.7518,2.7552,2.7567,2.762,2.763,2.7635,2.7654,2.765,2.767,2.7679,2.769,2.7711,2.7743,2.7765,2.7795,2.786,2.7864,2.7889,2.7898,2.7904,2.7911,2.7945,2.7957,2.7836,2.7836,2.7836,0,0,2.755,2.7565,2.7587,2.7628,2.7643,2.7678,2.7643,2.7682,2.7708,2.7685,2.7735,2.7744,2.7767,2.7826,2.7852,2.7836,2.7945,2.7911,2.7917,2.7919,2.7952,2.7963,2.7974,2.784,2.7839,2.7839,0,0,2.7627,2.7642,2.7687,2.7703,2.7726,2.7729,2.774,2.7759,2.7764,2.7815,2.7798,2.7829,2.7885,2.7902,2.7918,2.8,2.7986,2.801,2.8054,2.8088,2.8097,2.8105,2.8134,2.8145,2.8017,2.8017,2.8017,0,2.7664,2.7717,2.7712,2.7752,2.7771,2.7751,2.7797,2.7813,2.7845,2.7858,2.7839,2.7908,2.7922,2.7984,2.8004,2.8018,2.803,2.8008,2.8096,2.8104,2.8112,2.814,2.8151,2.802,2.8019,2.8019,2.8019,0,2.7761,2.7798,2.7832,2.7863,2.7885,2.7929,2.793,2.7953,2.7946,2.7951,2.8002,2.8018,2.8051,2.8066,2.806,2.8127,2.8116,2.8097,2.8062,2.8126,2.8152,2.8163,2.8024,2.8023,2.8022,2.8021,0,0,2.7863,2.7891,2.7903,2.7917,2.7941,2.7969,2.8011,2.8043,2.8063,2.8086,2.812,2.8168,2.815,2.8168,2.8164,2.8193,2.8257,2.817,2.8171,2.8186,2.8332,2.8346,2.8358,2.8248,2.825,2.8251,2.833,0,2.7941,2.8014,2.801,2.8079,2.8112,2.8094,2.813,2.8149,2.8154,2.8184,2.8189,2.8223,2.8197,2.8208,2.8236,2.8243,2.8286,2.8238,2.828,2.8281,2.8274,2.8372,2.8387,2.846,2.834,2.8342,2.8343,0,2.8041,2.8067,2.8139,2.8157,2.8171,2.8204,2.8233,2.8262,2.8282,2.8284,2.8304,2.8295,2.8337,2.8301,2.8359,2.8326,2.8343,2.8349,2.8352,2.8355,2.8316,2.8378,2.8484,2.8495,2.8359,2.8358,2.8356,0,2.8108,2.8161,2.821,2.8223,2.8246,2.8269,2.828,2.8298,2.8317,2.8343,2.8355,2.8385,2.8402,2.8425,2.8424,2.8398,2.8482,2.8447,2.8485,2.8485,2.8503,2.8502,2.8613,2.8514,2.8514,2.8514,2.8514,0,2.8195,2.8239,2.824,2.8271,2.832,2.8315,2.8364,2.8372,2.8389,2.842,2.8406,2.8436,2.8433,2.8463,2.8463,2.851,2.8518,2.852,2.8519,2.8521,2.8521,2.8532,2.8527,2.8517,2.8516,2.8516,2.8515,0,2.8277,2.828,2.8332,2.835,2.8355,2.8391,2.8405,2.8434,2.8438,2.8478,2.8487,2.8493,2.8528,2.8529,2.8569,2.8569,2.8627,2.862,2.862,2.8618,2.8656,2.8652,2.8777,2.8794,2.8685,2.8686,2.8687,0,2.8332,2.8366,2.8387,2.8407,2.8419,2.8452,2.8471,2.8468,2.8489,2.8515,2.854,2.8574,2.86,2.8656,2.8664,2.8695,2.8689,2.8731,2.8693,2.8694,2.8689,2.8687,2.869,2.8738,2.8739,2.874,2.8741,0,2.843,2.8429,2.8458,2.8488,2.8512,2.8535,2.8556,2.8573,2.8572,2.8597,2.8632,2.8652,2.8693,2.8726,2.8755,2.8766,2.8753,2.8752,2.8763,2.8765,2.8763,2.8764,2.8639,2.875,2.8749,2.8748,2.8748,2.8747,2.85,2.8529,2.8548,2.8581,2.8596,2.8616,2.8644,2.8651,2.8681,2.8713,2.871,2.8749,2.8768,2.8806,2.8819,2.8849,2.8835,2.885,2.8854,2.8857,2.8861,2.8758,2.8855,2.8855,2.8854,2.8854,2.8854,0,2.8596,2.8608,2.8638,2.8668,2.8693,2.8679,2.8702,2.8724,2.8759,2.8778,2.8804,2.8844,2.8876,2.8887,2.8917,2.894,2.8935,2.8948,2.8946,2.8949,2.8872,2.886,2.8951,2.8951,2.8951,2.8951,2.8951,2.8951,2.8649,2.8697,2.8699,2.8755,2.8765,2.8804,2.8818,2.8836,2.8851,2.8897,2.8923,2.893,2.8945,2.8977,2.9006,2.9008,2.902,2.9035,2.9035,2.8964,2.8954,2.8945,2.8933,2.9038,2.9038,2.9109,2.9109,2.911]}]]